FLTSATCOM F2

operational
NORAD ID: 11353 Int'l Des: 1979-038 Owner: USNESC/SAMSO Country: US
HEOCIRCULAR

About FLTSATCOM F2

Description loading...

Live Position

Loading 3D Globe...

Upcoming Passes

Altitude History

Altitude vs Time

uPlot chart will show altitude changes over time

Two-Line Element Set

1 11353U 79038A 26062.80573522 -.00000098 00000-0 00000+0 0 9995
2 11353 7.9533 303.2656 0016930 72.2745 102.7977 0.98544414169348
Epoch: Mar 3, 2026 • Age: 31 hours

Current Status

Altitude 36262.0 km
Velocity 3.06 km/s
Sub-Earth Point -0.80°S, 23.47°E
Launch Date May 4, 1979
Age 46.8 years
Type other

Technical Details

Classification Payload
Mass 942.00 kg
Dry Mass 822.00 kg
Total Mass 1876.00 kg
Length 1.30 m
Diameter 2.40 m
Span 13.20 m
Shape Hex Cyl + Dish + 2 Pan
Manufacturer TRW
Bus Type FLTSATCOM
Phase Status In Orbit
Owner/State USNESC/SAMSO/US

Large Constellations

Loading constellations...